Time,TemperatureF,DewpointF,PressureIn,WindDirection,WindDirectionDegrees,WindSpeedMPH,WindSpeedGustMPH,Humidity,HourlyPrecipIn,Conditions,Clouds,dailyrainin,SoftwareType,DateUTC
2013-03-24 00:00:00,32.6,24.8,30.03,NNE,32,0.0,0.0,73,0.00,,---,0.00,VWS V14.01,2013-03-24 05:00:00,
2013-03-24 00:05:00,32.5,25.0,30.03,NNW,345,0.0,1.8,73,0.00,,---,0.00,VWS V14.01,2013-03-24 05:05:00,
2013-03-24 00:10:00,32.5,25.0,30.03,ESE,110,0.0,1.8,73,0.00,,---,0.00,VWS V14.01,2013-03-24 05:10:00,
2013-03-24 00:15:00,32.4,25.2,30.03,ESE,110,0.0,1.8,74,0.00,,---,0.00,VWS V14.01,2013-03-24 05:15:00,
2013-03-24 00:20:00,32.3,25.1,30.03,ESE,110,0.0,0.0,74,0.00,,---,0.00,VWS V14.01,2013-03-24 05:20:00,
2013-03-24 00:25:00,32.3,25.1,30.03,ESE,110,0.0,0.0,74,0.00,,---,0.00,VWS V14.01,2013-03-24 05:25:00,
2013-03-24 00:30:00,32.2,25.3,30.03,ESE,110,0.0,0.0,75,0.00,,---,0.00,VWS V14.01,2013-03-24 05:30:00,
2013-03-24 00:35:00,32.1,24.9,30.02,NNW,335,0.0,0.0,74,0.00,,---,0.00,VWS V14.01,2013-03-24 05:35:00,
2013-03-24 00:40:00,32.2,25.0,30.02,SE,129,1.8,3.6,74,0.00,,---,0.00,VWS V14.01,2013-03-24 05:40:00,
2013-03-24 00:45:00,32.3,24.5,30.02,East,91,1.8,14.4,73,0.00,,---,0.00,VWS V14.01,2013-03-24 05:45:00,
2013-03-24 00:50:00,32.4,24.3,30.01,SE,133,7.2,9.0,72,0.00,,---,0.00,VWS V14.01,2013-03-24 05:50:00,
2013-03-24 00:55:00,32.5,24.4,30.01,ENE,60,0.0,10.8,72,0.00,,---,0.00,VWS V14.01,2013-03-24 05:55:00,
2013-03-24 01:00:00,32.5,24.4,30.01,ESE,117,1.8,7.2,72,0.00,,---,0.00,VWS V14.01,2013-03-24 06:00:00,
2013-03-24 01:05:00,32.2,24.7,30.01,SE,136,3.6,14.4,73,0.00,,---,0.00,VWS V14.01,2013-03-24 06:05:00,
2013-03-24 01:10:00,31.7,25.1,30.00,West,265,0.0,12.6,76,0.00,,---,0.00,VWS V14.01,2013-03-24 06:10:00,
2013-03-24 01:15:00,31.4,25.4,30.00,East,89,3.6,12.6,78,0.00,,---,0.00,VWS V14.01,2013-03-24 06:15:00,
2013-03-24 01:20:00,31.1,25.7,30.00,ESE,110,0.0,7.2,80,0.00,,---,0.00,VWS V14.01,2013-03-24 06:20:00,
2013-03-24 01:25:00,31.0,25.8,30.00,SW,236,0.0,3.6,81,0.00,,---,0.00,VWS V14.01,2013-03-24 06:25:00,
2013-03-24 01:30:00,30.9,25.7,30.00,ESE,122,5.4,7.2,81,0.00,,---,0.00,VWS V14.01,2013-03-24 06:30:00,
2013-03-24 01:35:00,30.9,25.7,29.99,East,98,1.8,7.2,81,0.00,,---,0.00,VWS V14.01,2013-03-24 06:35:00,
2013-03-24 01:40:00,30.9,26.0,29.99,North,5,0.0,3.6,82,0.00,,---,0.00,VWS V14.01,2013-03-24 06:40:00,
2013-03-24 01:45:00,30.9,26.0,29.99,NW,326,1.8,7.2,82,0.00,,---,0.00,VWS V14.01,2013-03-24 06:45:00,
2013-03-24 01:50:00,30.9,26.0,29.99,ESE,118,1.8,7.2,82,0.00,,---,0.00,VWS V14.01,2013-03-24 06:50:00,
2013-03-24 01:55:00,31.0,26.1,29.99,East,101,0.0,5.4,82,0.00,,---,0.00,VWS V14.01,2013-03-24 06:55:00,
2013-03-24 02:00:00,31.0,26.1,29.99,SE,127,3.6,5.4,82,0.00,,---,0.00,VWS V14.01,2013-03-24 07:00:00,
2013-03-24 02:05:00,31.0,25.8,29.99,East,98,1.8,3.6,81,0.00,,---,0.00,VWS V14.01,2013-03-24 07:05:00,
2013-03-24 02:10:00,31.0,25.8,29.98,ESE,104,0.0,5.4,81,0.00,,---,0.00,VWS V14.01,2013-03-24 07:10:00,
2013-03-24 02:15:00,31.0,25.8,29.98,East,90,1.8,7.2,81,0.00,,---,0.00,VWS V14.01,2013-03-24 07:15:00,
2013-03-24 02:20:00,31.1,25.7,29.98,SSW,205,1.8,5.4,80,0.00,,---,0.00,VWS V14.01,2013-03-24 07:20:00,
2013-03-24 02:25:00,31.1,25.7,29.98,ESE,108,0.0,1.8,80,0.00,,---,0.00,VWS V14.01,2013-03-24 07:25:00,
2013-03-24 02:30:00,31.0,25.6,29.98,ENE,75,0.0,3.6,80,0.00,,---,0.00,VWS V14.01,2013-03-24 07:30:00,
2013-03-24 02:35:00,31.0,25.6,29.98,ESE,106,0.0,5.4,80,0.00,,---,0.00,VWS V14.01,2013-03-24 07:35:00,
2013-03-24 02:40:00,30.9,25.5,29.98,ESE,106,1.8,5.4,80,0.00,,---,0.00,VWS V14.01,2013-03-24 07:40:00,
2013-03-24 02:45:00,30.9,25.5,29.98,ESE,103,1.8,5.4,80,0.00,,---,0.00,VWS V14.01,2013-03-24 07:45:00,
2013-03-24 02:50:00,30.8,25.4,29.98,ESE,111,1.8,3.6,80,0.00,,---,0.00,VWS V14.01,2013-03-24 07:50:00,
2013-03-24 02:55:00,30.8,25.4,29.98,ESE,108,0.0,3.6,80,0.00,,---,0.00,VWS V14.01,2013-03-24 07:55:00,
2013-03-24 03:00:00,30.7,25.3,29.98,ESE,113,0.0,0.0,80,0.00,,---,0.00,VWS V14.01,2013-03-24 08:00:00,
2013-03-24 03:05:00,30.7,25.3,29.97,East,95,0.0,3.6,80,0.00,,---,0.00,VWS V14.01,2013-03-24 08:05:00,
2013-03-24 03:10:00,30.7,25.0,29.97,ESE,113,3.6,3.6,79,0.00,,---,0.00,VWS V14.01,2013-03-24 08:10:00,
2013-03-24 03:15:00,30.7,25.0,29.97,SE,134,0.0,7.2,79,0.00,,---,0.00,VWS V14.01,2013-03-24 08:15:00,
2013-03-24 03:20:00,30.7,25.0,29.96,East,98,1.8,5.4,79,0.00,,---,0.00,VWS V14.01,2013-03-24 08:20:00,
2013-03-24 03:25:00,30.7,24.7,29.96,East,82,0.0,1.8,78,0.00,,---,0.00,VWS V14.01,2013-03-24 08:25:00,
2013-03-24 03:30:00,30.7,24.7,29.96,North,358,1.8,5.4,78,0.00,,---,0.00,VWS V14.01,2013-03-24 08:30:00,
2013-03-24 03:35:00,30.6,24.6,29.95,SE,135,0.0,1.8,78,0.00,,---,0.00,VWS V14.01,2013-03-24 08:35:00,
2013-03-24 03:40:00,30.6,24.9,29.95,NE,46,0.0,1.8,79,0.00,,---,0.00,VWS V14.01,2013-03-24 08:40:00,
2013-03-24 03:45:00,30.6,24.9,29.96,NW,309,0.0,0.0,79,0.00,,---,0.00,VWS V14.01,2013-03-24 08:45:00,
2013-03-24 03:50:00,30.6,24.9,29.95,NNW,347,0.0,0.0,79,0.00,,---,0.00,VWS V14.01,2013-03-24 08:50:00,
2013-03-24 03:55:00,30.6,24.9,29.95,NNW,333,0.0,0.0,79,0.00,,---,0.00,VWS V14.01,2013-03-24 08:55:00,
2013-03-24 04:00:00,30.6,24.9,29.95,ENE,58,0.0,0.0,79,0.00,,---,0.00,VWS V14.01,2013-03-24 09:00:00,
2013-03-24 04:05:00,30.6,24.9,29.95,NW,316,0.0,0.0,79,0.00,,---,0.00,VWS V14.01,2013-03-24 09:05:00,
2013-03-24 04:10:00,30.6,24.9,29.95,North,355,0.0,0.0,79,0.00,,---,0.00,VWS V14.01,2013-03-24 09:10:00,
2013-03-24 04:15:00,30.5,24.8,29.95,ENE,60,0.0,0.0,79,0.00,,---,0.00,VWS V14.01,2013-03-24 09:15:00,
2013-03-24 04:20:00,30.5,24.8,29.94,NE,38,0.0,0.0,79,0.00,,---,0.00,VWS V14.01,2013-03-24 09:20:00,
2013-03-24 04:25:00,30.5,24.5,29.94,South,187,0.0,0.0,78,0.00,,---,0.00,VWS V14.01,2013-03-24 09:25:00,
2013-03-24 04:30:00,30.6,24.6,29.94,North,4,0.0,3.6,78,0.00,,---,0.00,VWS V14.01,2013-03-24 09:30:00,
2013-03-24 04:35:00,30.6,24.9,29.93,North,349,1.8,3.6,79,0.00,,---,0.00,VWS V14.01,2013-03-24 09:35:00,
2013-03-24 04:40:00,30.6,24.9,29.93,NNW,336,0.0,3.6,79,0.00,,---,0.00,VWS V14.01,2013-03-24 09:40:00,
2013-03-24 04:45:00,30.6,24.9,29.92,NNW,333,0.0,3.6,79,0.00,,---,0.00,VWS V14.01,2013-03-24 09:45:00,
2013-03-24 04:50:00,30.6,24.9,29.91,NNW,335,5.4,5.4,79,0.00,,---,0.00,VWS V14.01,2013-03-24 09:50:00,
2013-03-24 04:55:00,30.6,24.9,29.91,ENE,71,1.8,3.6,79,0.00,,---,0.00,VWS V14.01,2013-03-24 09:55:00,
2013-03-24 05:00:00,30.6,24.9,29.91,NNW,333,3.6,5.4,79,0.00,,---,0.00,VWS V14.01,2013-03-24 10:00:00,
2013-03-24 05:05:00,30.6,24.9,29.91,SE,132,0.0,5.4,79,0.00,,---,0.00,VWS V14.01,2013-03-24 10:05:00,
2013-03-24 05:10:00,30.6,24.9,29.91,SW,214,0.0,5.4,79,0.00,,---,0.00,VWS V14.01,2013-03-24 10:10:00,
2013-03-24 05:15:00,30.5,24.8,29.90,NNW,345,7.2,7.2,79,0.00,,---,0.00,VWS V14.01,2013-03-24 10:15:00,
2013-03-24 05:20:00,30.4,24.7,29.90,SE,131,0.0,5.4,79,0.00,,---,0.00,VWS V14.01,2013-03-24 10:20:00,
2013-03-24 05:25:00,30.4,24.7,29.90,NW,321,5.4,7.2,79,0.00,,---,0.00,VWS V14.01,2013-03-24 10:25:00,
2013-03-24 05:30:00,30.3,24.6,29.90,NNW,338,5.4,5.4,79,0.00,,---,0.00,VWS V14.01,2013-03-24 10:30:00,
2013-03-24 05:35:00,30.2,24.5,29.90,NW,310,1.8,9.0,79,0.00,,---,0.00,VWS V14.01,2013-03-24 10:35:00,
2013-03-24 05:40:00,30.1,24.4,29.90,NNE,24,3.6,12.6,79,0.00,,---,0.00,VWS V14.01,2013-03-24 10:40:00,
2013-03-24 05:45:00,29.9,24.5,29.90,NNW,330,1.8,12.6,80,0.00,,---,0.00,VWS V14.01,2013-03-24 10:45:00,
2013-03-24 05:50:00,29.8,24.7,29.90,NNW,330,5.4,7.2,81,0.00,,---,0.00,VWS V14.01,2013-03-24 10:50:00,
2013-03-24 05:55:00,29.7,24.8,29.90,SE,141,3.6,7.2,82,0.00,,---,0.00,VWS V14.01,2013-03-24 10:55:00,
2013-03-24 06:00:00,29.6,24.7,29.90,NW,321,3.6,7.2,82,0.00,,---,0.00,VWS V14.01,2013-03-24 11:00:00,
2013-03-24 06:05:00,29.5,24.9,29.90,SW,228,1.8,5.4,83,0.00,,---,0.00,VWS V14.01,2013-03-24 11:05:00,
2013-03-24 06:10:00,29.4,24.8,29.91,North,352,1.8,7.2,83,0.00,,---,0.00,VWS V14.01,2013-03-24 11:10:00,
2013-03-24 06:15:00,29.4,25.1,29.92,NW,321,0.0,7.2,84,0.00,,---,0.00,VWS V14.01,2013-03-24 11:15:00,
2013-03-24 06:20:00,29.4,25.1,29.92,NNW,348,0.0,1.8,84,0.00,,---,0.00,VWS V14.01,2013-03-24 11:20:00,
2013-03-24 06:25:00,29.4,25.4,29.92,ENE,70,0.0,1.8,85,0.00,,---,0.00,VWS V14.01,2013-03-24 11:25:00,
2013-03-24 06:30:00,29.3,25.2,29.91,North,355,0.0,3.6,85,0.00,,---,0.00,VWS V14.01,2013-03-24 11:30:00,
2013-03-24 06:35:00,29.3,25.2,29.91,NNW,338,0.0,5.4,85,0.00,,---,0.00,VWS V14.01,2013-03-24 11:35:00,
2013-03-24 06:40:00,29.2,25.2,29.91,North,11,3.6,9.0,85,0.00,,---,0.00,VWS V14.01,2013-03-24 11:40:00,
2013-03-24 06:45:00,29.2,25.4,29.90,NW,326,0.0,3.6,86,0.00,,---,0.00,VWS V14.01,2013-03-24 11:45:00,
2013-03-24 06:50:00,29.1,25.3,29.90,NE,56,3.6,7.2,86,0.00,,---,0.00,VWS V14.01,2013-03-24 11:50:00,
2013-03-24 06:55:00,29.0,25.2,29.90,NE,40,3.6,5.4,86,0.00,,---,0.00,VWS V14.01,2013-03-24 11:55:00,
2013-03-24 07:00:00,29.0,25.5,29.90,North,360,3.6,5.4,86,0.00,,---,0.00,VWS V14.01,2013-03-24 12:00:00,
2013-03-24 07:05:00,28.9,25.4,29.90,North,1,0.0,3.6,86,0.00,,---,0.00,VWS V14.01,2013-03-24 12:05:00,
2013-03-24 07:10:00,28.9,25.4,29.90,North,349,1.8,5.4,86,0.00,,---,0.00,VWS V14.01,2013-03-24 12:10:00,
2013-03-24 07:15:00,28.8,25.3,29.90,North,7,3.6,7.2,86,0.00,,---,0.00,VWS V14.01,2013-03-24 12:15:00,
2013-03-24 07:20:00,28.8,25.3,29.90,North,6,3.6,3.6,86,0.00,,---,0.00,VWS V14.01,2013-03-24 12:20:00,
2013-03-24 07:25:00,28.8,25.3,29.90,West,266,0.0,5.4,86,0.00,,---,0.00,VWS V14.01,2013-03-24 12:25:00,
2013-03-24 07:30:00,28.8,25.3,29.90,North,354,3.6,5.4,86,0.00,,---,0.00,VWS V14.01,2013-03-24 12:30:00,
2013-03-24 07:35:00,28.8,25.3,29.90,NNE,18,3.6,5.4,86,0.00,,---,0.00,VWS V14.01,2013-03-24 12:35:00,
2013-03-24 07:40:00,28.8,25.3,29.89,North,352,3.6,7.2,86,0.00,,---,0.00,VWS V14.01,2013-03-24 12:40:00,
2013-03-24 07:45:00,28.8,25.3,29.89,North,351,3.6,7.2,86,0.00,,---,0.00,VWS V14.01,2013-03-24 12:45:00,
2013-03-24 07:50:00,28.9,25.4,29.89,North,4,1.8,7.2,86,0.00,,---,0.00,VWS V14.01,2013-03-24 12:50:00,
2013-03-24 07:55:00,29.0,25.5,29.88,North,349,7.2,9.0,86,0.00,,---,0.00,VWS V14.01,2013-03-24 12:55:00,
2013-03-24 08:00:00,29.1,25.6,29.88,North,8,5.4,10.8,86,0.00,,---,0.00,VWS V14.01,2013-03-24 13:00:00,
2013-03-24 08:05:00,29.1,25.6,29.88,North,9,3.6,9.0,86,0.00,,---,0.00,VWS V14.01,2013-03-24 13:05:00,
2013-03-24 08:10:00,29.1,25.6,29.87,NNE,13,1.8,9.0,86,0.00,,---,0.00,VWS V14.01,2013-03-24 13:10:00,
2013-03-24 08:15:00,29.2,25.7,29.87,NW,314,3.6,7.2,86,0.00,,---,0.00,VWS V14.01,2013-03-24 13:15:00,
2013-03-24 08:20:00,29.2,25.7,29.87,ESE,120,1.8,12.6,86,0.00,,---,0.00,VWS V14.01,2013-03-24 13:20:00,
2013-03-24 08:25:00,29.4,25.9,29.86,SSW,194,0.0,9.0,86,0.00,,---,0.00,VWS V14.01,2013-03-24 13:25:00,
2013-03-24 08:30:00,29.4,25.9,29.86,NE,41,3.6,9.0,86,0.00,,---,0.00,VWS V14.01,2013-03-24 13:30:00,
2013-03-24 08:35:00,29.5,26.0,29.85,North,1,1.8,9.0,86,0.00,,---,0.00,VWS V14.01,2013-03-24 13:35:00,
2013-03-24 08:40:00,29.6,26.1,29.85,ESE,103,1.8,7.2,86,0.00,,---,0.00,VWS V14.01,2013-03-24 13:40:00,
2013-03-24 08:45:00,29.7,25.9,29.84,North,4,12.6,14.4,86,0.00,,---,0.00,VWS V14.01,2013-03-24 13:45:00,
2013-03-24 08:50:00,29.8,26.0,29.84,ESE,104,3.6,7.2,86,0.00,,---,0.00,VWS V14.01,2013-03-24 13:50:00,
2013-03-24 08:55:00,29.9,26.1,29.83,NW,326,7.2,14.4,86,0.00,,---,0.00,VWS V14.01,2013-03-24 13:55:00,
2013-03-24 09:00:00,30.2,26.4,29.83,SE,139,1.8,12.6,86,0.00,,---,0.00,VWS V14.01,2013-03-24 14:00:00,
2013-03-24 09:05:00,30.3,26.2,29.82,NW,309,5.4,18.0,85,0.00,,---,0.00,VWS V14.01,2013-03-24 14:05:00,
2013-03-24 09:10:00,30.6,26.5,29.82,NW,313,1.8,16.2,85,0.00,,---,0.00,VWS V14.01,2013-03-24 14:10:00,
2013-03-24 09:15:00,31.1,26.8,29.82,NE,53,5.4,9.0,84,0.00,,---,0.00,VWS V14.01,2013-03-24 14:15:00,
2013-03-24 09:20:00,31.4,26.8,29.82,NNE,27,5.4,10.8,83,0.00,,---,0.00,VWS V14.01,2013-03-24 14:20:00,
2013-03-24 09:25:00,31.5,26.6,29.82,NW,306,1.8,12.6,82,0.00,,---,0.00,VWS V14.01,2013-03-24 14:25:00,
2013-03-24 09:30:00,31.6,26.7,29.82,ENE,69,7.2,10.8,82,0.00,,---,0.00,VWS V14.01,2013-03-24 14:30:00,
2013-03-24 09:35:00,31.8,27.2,29.82,NNW,345,5.4,10.8,83,0.00,,---,0.00,VWS V14.01,2013-03-24 14:35:00,
2013-03-24 09:40:00,31.9,27.3,29.82,WSW,246,1.8,10.8,83,0.00,,---,0.00,VWS V14.01,2013-03-24 14:40:00,
2013-03-24 09:45:00,32.0,27.1,29.82,NNW,347,5.4,12.6,82,0.00,,---,0.00,VWS V14.01,2013-03-24 14:45:00,
2013-03-24 09:50:00,32.1,27.5,29.81,NNW,344,14.4,16.2,83,0.00,,---,0.00,VWS V14.01,2013-03-24 14:50:00,
2013-03-24 09:55:00,32.1,27.2,29.80,North,351,10.8,21.6,82,0.00,,---,0.00,VWS V14.01,2013-03-24 14:55:00,
2013-03-24 10:00:00,32.1,27.5,29.81,NNW,330,5.4,16.2,83,0.00,,---,0.00,VWS V14.01,2013-03-24 15:00:00,
2013-03-24 10:05:00,32.2,27.6,29.81,NE,56,9.0,18.0,83,0.00,,---,0.00,VWS V14.01,2013-03-24 15:05:00,
2013-03-24 10:10:00,32.2,27.3,29.81,North,5,5.4,16.2,82,0.00,,---,0.00,VWS V14.01,2013-03-24 15:10:00,
2013-03-24 10:15:00,32.3,27.4,29.81,NNW,343,12.6,12.6,82,0.00,,---,0.00,VWS V14.01,2013-03-24 15:15:00,
2013-03-24 10:20:00,32.6,27.7,29.81,SE,139,7.2,14.4,82,0.01,,---,0.01,VWS V14.01,2013-03-24 15:20:00,
2013-03-24 10:25:00,32.9,28.0,29.80,WSW,258,7.2,12.6,82,0.01,,---,0.01,VWS V14.01,2013-03-24 15:25:00,
2013-03-24 10:30:00,32.9,27.7,29.80,ENE,74,3.6,10.8,81,0.01,,---,0.01,VWS V14.01,2013-03-24 15:30:00,
2013-03-24 10:35:00,33.0,28.1,29.80,ENE,60,9.0,14.4,82,0.01,,---,0.01,VWS V14.01,2013-03-24 15:35:00,
2013-03-24 10:40:00,33.1,27.9,29.81,West,267,1.8,14.4,81,0.01,,---,0.01,VWS V14.01,2013-03-24 15:40:00,
2013-03-24 10:45:00,33.2,28.0,29.81,East,91,7.2,14.4,81,0.02,,---,0.02,VWS V14.01,2013-03-24 15:45:00,
2013-03-24 10:50:00,33.1,27.9,29.81,North,349,3.6,14.4,81,0.02,,---,0.02,VWS V14.01,2013-03-24 15:50:00,
2013-03-24 10:55:00,33.1,27.9,29.81,SE,132,5.4,12.6,81,0.02,,---,0.02,VWS V14.01,2013-03-24 15:55:00,
2013-03-24 11:00:00,33.1,27.9,29.81,NNW,328,5.4,10.8,81,0.02,,---,0.02,VWS V14.01,2013-03-24 16:00:00,
2013-03-24 11:05:00,33.0,27.8,29.81,ENE,68,5.4,14.4,81,0.02,,---,0.02,VWS V14.01,2013-03-24 16:05:00,
2013-03-24 11:10:00,33.0,27.5,29.81,NW,315,5.4,9.0,80,0.02,,---,0.02,VWS V14.01,2013-03-24 16:10:00,
2013-03-24 11:15:00,33.0,27.5,29.81,SSE,163,1.8,12.6,80,0.02,,---,0.02,VWS V14.01,2013-03-24 16:15:00,
2013-03-24 11:20:00,33.0,27.5,29.81,North,5,7.2,9.0,80,0.02,,---,0.02,VWS V14.01,2013-03-24 16:20:00,
2013-03-24 11:25:00,32.9,27.4,29.81,ESE,114,0.0,16.2,80,0.01,,---,0.02,VWS V14.01,2013-03-24 16:25:00,
2013-03-24 11:30:00,32.8,27.3,29.81,SE,139,1.8,12.6,80,0.02,,---,0.03,VWS V14.01,2013-03-24 16:30:00,
2013-03-24 11:35:00,32.8,27.6,29.81,North,11,9.0,10.8,81,0.02,,---,0.03,VWS V14.01,2013-03-24 16:35:00,
2013-03-24 11:40:00,32.7,27.5,29.80,South,189,1.8,14.4,81,0.02,,---,0.03,VWS V14.01,2013-03-24 16:40:00,
2013-03-24 11:45:00,32.7,27.8,29.80,North,354,1.8,9.0,82,0.02,,---,0.03,VWS V14.01,2013-03-24 16:45:00,
2013-03-24 11:50:00,32.7,27.8,29.80,WSW,240,1.8,12.6,82,0.01,,---,0.03,VWS V14.01,2013-03-24 16:50:00,
2013-03-24 11:55:00,32.8,27.6,29.80,West,281,1.8,12.6,81,0.01,,---,0.03,VWS V14.01,2013-03-24 16:55:00,
2013-03-24 12:00:00,32.8,27.6,29.80,ENE,64,3.6,16.2,81,0.01,,---,0.03,VWS V14.01,2013-03-24 17:00:00,
2013-03-24 12:05:00,32.9,27.7,29.80,SSW,207,1.8,14.4,81,0.01,,---,0.03,VWS V14.01,2013-03-24 17:05:00,
2013-03-24 12:10:00,32.9,27.7,29.80,SE,132,1.8,12.6,81,0.01,,---,0.03,VWS V14.01,2013-03-24 17:10:00,
2013-03-24 12:15:00,33.0,28.1,29.80,NNE,16,1.8,7.2,82,0.01,,---,0.03,VWS V14.01,2013-03-24 17:15:00,
2013-03-24 12:20:00,33.0,27.8,29.80,ENE,60,1.8,10.8,81,0.01,,---,0.03,VWS V14.01,2013-03-24 17:20:00,
2013-03-24 12:25:00,32.9,27.7,29.80,North,349,5.4,12.6,81,0.01,,---,0.03,VWS V14.01,2013-03-24 17:25:00,
2013-03-24 12:30:00,32.7,27.5,29.80,NNW,346,7.2,10.8,81,0.01,,---,0.03,VWS V14.01,2013-03-24 17:30:00,
2013-03-24 12:35:00,32.7,28.0,29.80,NNE,13,7.2,16.2,83,0.00,,---,0.03,VWS V14.01,2013-03-24 17:35:00,
2013-03-24 12:40:00,32.7,28.0,29.79,North,4,3.6,10.8,83,0.00,,---,0.03,VWS V14.01,2013-03-24 17:40:00,
2013-03-24 12:45:00,32.8,28.4,29.79,NNE,14,3.6,7.2,84,0.00,,---,0.03,VWS V14.01,2013-03-24 17:45:00,
2013-03-24 12:50:00,32.9,28.8,29.78,NNW,343,5.4,9.0,85,0.00,,---,0.03,VWS V14.01,2013-03-24 17:50:00,
2013-03-24 12:55:00,32.8,28.4,29.78,North,352,10.8,12.6,84,0.01,,---,0.04,VWS V14.01,2013-03-24 17:55:00,
2013-03-24 13:00:00,32.7,28.3,29.78,NW,316,5.4,14.4,84,0.01,,---,0.04,VWS V14.01,2013-03-24 18:00:00,
2013-03-24 13:05:00,32.7,28.0,29.78,NNW,330,3.6,10.8,83,0.01,,---,0.04,VWS V14.01,2013-03-24 18:05:00,
2013-03-24 13:10:00,32.6,28.0,29.78,NW,316,1.8,12.6,83,0.01,,---,0.04,VWS V14.01,2013-03-24 18:10:00,
2013-03-24 13:15:00,32.5,27.9,29.77,NNW,330,5.4,12.6,83,0.01,,---,0.04,VWS V14.01,2013-03-24 18:15:00,
2013-03-24 13:20:00,32.5,27.9,29.77,NNE,14,16.2,16.2,83,0.01,,---,0.04,VWS V14.01,2013-03-24 18:20:00,
2013-03-24 13:25:00,32.4,27.8,29.77,NE,37,3.6,14.4,83,0.01,,---,0.04,VWS V14.01,2013-03-24 18:25:00,
2013-03-24 13:30:00,32.4,27.5,29.77,North,359,9.0,14.4,82,0.01,,---,0.04,VWS V14.01,2013-03-24 18:30:00,
2013-03-24 13:35:00,32.4,27.5,29.76,East,98,3.6,12.6,82,0.01,,---,0.04,VWS V14.01,2013-03-24 18:35:00,
2013-03-24 13:40:00,32.3,27.7,29.76,NNW,347,12.6,12.6,83,0.01,,---,0.04,VWS V14.01,2013-03-24 18:40:00,
2013-03-24 13:45:00,32.3,27.7,29.76,NNE,16,12.6,12.6,83,0.01,,---,0.04,VWS V14.01,2013-03-24 18:45:00,
2013-03-24 13:50:00,32.3,27.7,29.76,North,349,7.2,10.8,83,0.01,,---,0.04,VWS V14.01,2013-03-24 18:50:00,
2013-03-24 13:55:00,32.2,27.8,29.76,North,7,9.0,14.4,84,0.00,,---,0.04,VWS V14.01,2013-03-24 18:55:00,
2013-03-24 14:00:00,32.1,27.7,29.76,North,6,3.6,14.4,84,0.00,,---,0.04,VWS V14.01,2013-03-24 19:00:00,
2013-03-24 14:05:00,31.9,27.5,29.75,NW,311,5.4,16.2,84,0.00,,---,0.04,VWS V14.01,2013-03-24 19:05:00,
2013-03-24 14:10:00,31.9,27.8,29.75,NE,56,9.0,18.0,85,0.00,,---,0.04,VWS V14.01,2013-03-24 19:10:00,
2013-03-24 14:15:00,31.7,27.6,29.75,North,351,10.8,16.2,85,0.00,,---,0.04,VWS V14.01,2013-03-24 19:15:00,
2013-03-24 14:20:00,31.6,27.8,29.75,NNW,336,9.0,14.4,86,0.00,,---,0.04,VWS V14.01,2013-03-24 19:20:00,
2013-03-24 14:25:00,31.7,27.9,29.75,North,358,7.2,9.0,86,0.00,,---,0.04,VWS V14.01,2013-03-24 19:25:00,
2013-03-24 14:30:00,31.6,28.0,29.74,NNW,340,3.6,14.4,86,0.00,,---,0.04,VWS V14.01,2013-03-24 19:30:00,
2013-03-24 14:35:00,31.7,28.1,29.74,NW,317,5.4,10.8,86,0.00,,---,0.04,VWS V14.01,2013-03-24 19:35:00,
2013-03-24 14:40:00,31.7,28.1,29.74,North,11,5.4,12.6,86,0.00,,---,0.04,VWS V14.01,2013-03-24 19:40:00,
2013-03-24 14:45:00,31.6,28.0,29.74,NNW,344,7.2,18.0,86,0.00,,---,0.04,VWS V14.01,2013-03-24 19:45:00,
2013-03-24 14:50:00,31.7,28.1,29.73,North,6,10.8,14.4,86,0.00,,---,0.04,VWS V14.01,2013-03-24 19:50:00,
2013-03-24 14:55:00,31.6,28.0,29.73,North,355,7.2,16.2,86,0.00,,---,0.04,VWS V14.01,2013-03-24 19:55:00,
2013-03-24 15:00:00,31.7,28.4,29.73,NW,313,5.4,12.6,87,0.00,,---,0.04,VWS V14.01,2013-03-24 20:00:00,
2013-03-24 15:05:00,31.7,28.4,29.72,NW,323,9.0,10.8,87,0.00,,---,0.04,VWS V14.01,2013-03-24 20:05:00,
2013-03-24 15:10:00,31.7,28.1,29.72,NNW,333,3.6,16.2,86,0.00,,---,0.04,VWS V14.01,2013-03-24 20:10:00,
2013-03-24 15:15:00,31.8,28.2,29.72,WNW,300,1.8,12.6,86,0.00,,---,0.04,VWS V14.01,2013-03-24 20:15:00,
2013-03-24 15:20:00,31.8,28.2,29.72,West,274,7.2,12.6,86,0.00,,---,0.04,VWS V14.01,2013-03-24 20:20:00,
2013-03-24 15:25:00,31.9,28.3,29.72,North,349,3.6,18.0,86,0.00,,---,0.04,VWS V14.01,2013-03-24 20:25:00,
2013-03-24 15:30:00,31.9,28.3,29.72,NW,313,3.6,10.8,86,0.00,,---,0.04,VWS V14.01,2013-03-24 20:30:00,
2013-03-24 15:35:00,31.9,28.3,29.72,NW,314,7.2,10.8,86,0.00,,---,0.04,VWS V14.01,2013-03-24 20:35:00,
2013-03-24 15:40:00,31.8,28.2,29.73,North,354,1.8,14.4,86,0.00,,---,0.04,VWS V14.01,2013-03-24 20:40:00,
2013-03-24 15:45:00,31.7,27.9,29.73,SSE,165,5.4,12.6,86,0.00,,---,0.04,VWS V14.01,2013-03-24 20:45:00,
2013-03-24 15:50:00,31.7,27.9,29.72,NW,323,5.4,18.0,86,0.00,,---,0.04,VWS V14.01,2013-03-24 20:50:00,
2013-03-24 15:55:00,31.7,27.9,29.72,NNW,338,5.4,12.6,86,0.00,,---,0.04,VWS V14.01,2013-03-24 20:55:00,
2013-03-24 16:00:00,31.6,27.8,29.72,NNE,24,7.2,14.4,86,0.00,,---,0.04,VWS V14.01,2013-03-24 21:00:00,
2013-03-24 16:05:00,31.6,27.8,29.72,North,6,10.8,18.0,86,0.00,,---,0.04,VWS V14.01,2013-03-24 21:05:00,
2013-03-24 16:10:00,31.5,27.4,29.72,ENE,66,3.6,12.6,85,0.00,,---,0.04,VWS V14.01,2013-03-24 21:10:00,
2013-03-24 16:15:00,31.5,27.4,29.73,North,354,10.8,18.0,85,0.00,,---,0.04,VWS V14.01,2013-03-24 21:15:00,
2013-03-24 16:20:00,31.5,27.7,29.73,NNE,15,1.8,10.8,86,0.00,,---,0.04,VWS V14.01,2013-03-24 21:20:00,
2013-03-24 16:25:00,31.5,27.7,29.73,NNW,338,7.2,14.4,86,0.00,,---,0.04,VWS V14.01,2013-03-24 21:25:00,
2013-03-24 16:30:00,31.4,27.6,29.73,North,349,10.8,18.0,86,0.00,,---,0.04,VWS V14.01,2013-03-24 21:30:00,
2013-03-24 16:35:00,31.4,27.6,29.74,NNE,16,3.6,12.6,86,0.00,,---,0.04,VWS V14.01,2013-03-24 21:35:00,
2013-03-24 16:40:00,31.4,27.3,29.74,NNE,18,3.6,12.6,85,0.00,,---,0.04,VWS V14.01,2013-03-24 21:40:00,
2013-03-24 16:45:00,31.3,27.5,29.74,NNW,342,5.4,12.6,86,0.00,,---,0.04,VWS V14.01,2013-03-24 21:45:00,
2013-03-24 16:50:00,31.1,27.3,29.74,WNW,299,7.2,10.8,86,0.00,,---,0.04,VWS V14.01,2013-03-24 21:50:00,
2013-03-24 16:55:00,31.0,27.2,29.74,North,4,5.4,14.4,86,0.00,,---,0.04,VWS V14.01,2013-03-24 21:55:00,
2013-03-24 17:00:00,30.8,27.0,29.74,NW,321,5.4,12.6,86,0.00,,---,0.04,VWS V14.01,2013-03-24 22:00:00,
2013-03-24 17:05:00,30.7,27.1,29.75,East,93,7.2,12.6,86,0.00,,---,0.04,VWS V14.01,2013-03-24 22:05:00,
2013-03-24 17:10:00,30.7,27.1,29.75,NNE,24,3.6,10.8,86,0.00,,---,0.04,VWS V14.01,2013-03-24 22:10:00,
2013-03-24 17:15:00,30.6,27.3,29.75,WNW,287,1.8,10.8,87,0.00,,---,0.04,VWS V14.01,2013-03-24 22:15:00,
2013-03-24 17:20:00,30.5,27.2,29.75,North,1,5.4,9.0,87,0.00,,---,0.04,VWS V14.01,2013-03-24 22:20:00,
2013-03-24 17:25:00,30.4,27.1,29.75,NNE,13,7.2,10.8,87,0.00,,---,0.04,VWS V14.01,2013-03-24 22:25:00,
2013-03-24 17:30:00,30.3,27.0,29.75,NNE,16,3.6,7.2,87,0.00,,---,0.04,VWS V14.01,2013-03-24 22:30:00,
2013-03-24 17:35:00,30.3,27.0,29.75,NNE,16,7.2,10.8,87,0.00,,---,0.04,VWS V14.01,2013-03-24 22:35:00,
2013-03-24 17:40:00,30.2,27.2,29.75,NNW,340,3.6,16.2,88,0.00,,---,0.04,VWS V14.01,2013-03-24 22:40:00,
2013-03-24 17:45:00,30.2,27.2,29.76,NNW,343,3.6,9.0,88,0.00,,---,0.04,VWS V14.01,2013-03-24 22:45:00,
2013-03-24 17:50:00,30.2,27.2,29.76,NE,35,7.2,10.8,88,0.00,,---,0.04,VWS V14.01,2013-03-24 22:50:00,
2013-03-24 17:55:00,30.1,27.1,29.76,NNW,345,3.6,10.8,88,0.00,,---,0.04,VWS V14.01,2013-03-24 22:55:00,
2013-03-24 18:00:00,30.0,27.0,29.76,North,1,7.2,14.4,88,0.00,,---,0.04,VWS V14.01,2013-03-24 23:00:00,
2013-03-24 18:05:00,30.0,27.0,29.76,North,349,5.4,12.6,88,0.00,,---,0.04,VWS V14.01,2013-03-24 23:05:00,
2013-03-24 18:10:00,29.9,26.9,29.77,NW,316,1.8,14.4,88,0.00,,---,0.04,VWS V14.01,2013-03-24 23:10:00,
2013-03-24 18:15:00,29.9,26.9,29.77,WNW,285,1.8,12.6,88,0.00,,---,0.04,VWS V14.01,2013-03-24 23:15:00,
2013-03-24 18:20:00,29.8,26.8,29.77,NNE,12,3.6,18.0,88,0.00,,---,0.04,VWS V14.01,2013-03-24 23:20:00,
2013-03-24 18:25:00,29.8,26.8,29.77,NW,325,3.6,12.6,88,0.00,,---,0.04,VWS V14.01,2013-03-24 23:25:00,
2013-03-24 18:30:00,29.8,26.8,29.77,NNE,31,3.6,10.8,88,0.00,,---,0.04,VWS V14.01,2013-03-24 23:30:00,
2013-03-24 18:35:00,29.9,26.9,29.77,West,266,7.2,10.8,88,0.00,,---,0.04,VWS V14.01,2013-03-24 23:35:00,
2013-03-24 18:40:00,29.8,26.8,29.77,NW,317,3.6,10.8,88,0.00,,---,0.04,VWS V14.01,2013-03-24 23:40:00,
2013-03-24 18:45:00,29.8,26.8,29.78,NNE,30,5.4,14.4,88,0.00,,---,0.04,VWS V14.01,2013-03-24 23:45:00,
2013-03-24 18:50:00,29.7,26.7,29.78,NNW,342,5.4,14.4,88,0.00,,---,0.04,VWS V14.01,2013-03-24 23:50:00,
2013-03-24 18:55:00,29.7,26.7,29.78,NNW,338,3.6,10.8,88,0.00,,---,0.04,VWS V14.01,2013-03-24 23:55:00,
2013-03-24 19:00:00,29.7,26.7,29.78,WNW,298,10.8,10.8,88,0.00,,---,0.04,VWS V14.01,2013-03-25 00:00:00,
2013-03-24 19:05:00,29.6,26.6,29.78,NNE,13,1.8,10.8,88,0.00,,---,0.04,VWS V14.01,2013-03-25 00:05:00,
2013-03-24 19:10:00,29.6,26.6,29.78,NNW,329,3.6,21.6,88,0.00,,---,0.04,VWS V14.01,2013-03-25 00:10:00,
2013-03-24 19:15:00,29.6,26.6,29.79,West,274,3.6,7.2,88,0.00,,---,0.04,VWS V14.01,2013-03-25 00:15:00,
2013-03-24 19:20:00,29.5,26.5,29.79,NNE,15,7.2,10.8,88,0.00,,---,0.04,VWS V14.01,2013-03-25 00:20:00,
2013-03-24 19:25:00,29.5,26.5,29.79,NW,323,3.6,10.8,88,0.00,,---,0.04,VWS V14.01,2013-03-25 00:25:00,
2013-03-24 19:30:00,29.4,26.4,29.79,NW,321,5.4,14.4,88,0.00,,---,0.04,VWS V14.01,2013-03-25 00:30:00,
2013-03-24 19:35:00,29.4,26.4,29.79,North,358,1.8,10.8,88,0.00,,---,0.04,VWS V14.01,2013-03-25 00:35:00,
2013-03-24 19:40:00,29.5,26.5,29.79,NW,315,5.4,9.0,88,0.00,,---,0.04,VWS V14.01,2013-03-25 00:40:00,
2013-03-24 19:45:00,29.4,26.4,29.79,NNE,14,12.6,14.4,88,0.00,,---,0.04,VWS V14.01,2013-03-25 00:45:00,
2013-03-24 19:50:00,29.4,26.4,29.79,ESE,117,3.6,12.6,88,0.00,,---,0.04,VWS V14.01,2013-03-25 00:50:00,
2013-03-24 19:55:00,29.4,26.4,29.79,North,7,7.2,18.0,88,0.00,,---,0.04,VWS V14.01,2013-03-25 00:55:00,
2013-03-24 20:00:00,29.4,26.4,29.79,North,6,5.4,10.8,88,0.00,,---,0.04,VWS V14.01,2013-03-25 01:00:00,
2013-03-24 20:05:00,29.4,26.4,29.79,NNE,15,7.2,14.4,88,0.00,,---,0.04,VWS V14.01,2013-03-25 01:05:00,
2013-03-24 20:10:00,29.3,26.3,29.80,North,354,3.6,12.6,88,0.00,,---,0.04,VWS V14.01,2013-03-25 01:10:00,
2013-03-24 20:15:00,29.3,26.3,29.80,North,0,5.4,14.4,88,0.00,,---,0.04,VWS V14.01,2013-03-25 01:15:00,
2013-03-24 20:20:00,29.3,26.3,29.80,NNE,22,5.4,14.4,88,0.00,,---,0.04,VWS V14.01,2013-03-25 01:20:00,
2013-03-24 20:25:00,29.3,26.3,29.80,North,0,5.4,16.2,88,0.00,,---,0.04,VWS V14.01,2013-03-25 01:25:00,
2013-03-24 20:38:00,29.2,26.2,29.80,North,0,5.4,12.6,88,0.00,,---,0.04,VWS V14.01,2013-03-25 01:38:00,
2013-03-24 20:43:00,29.2,26.2,29.80,NNW,342,3.6,10.8,88,0.00,,---,0.04,VWS V14.01,2013-03-25 01:43:00,
2013-03-24 20:48:00,29.2,26.2,29.81,NNE,26,7.2,9.0,88,0.00,,---,0.04,VWS V14.01,2013-03-25 01:48:00,
2013-03-24 20:53:00,29.3,26.3,29.81,NNW,345,1.8,7.2,88,0.00,,---,0.04,VWS V14.01,2013-03-25 01:53:00,
2013-03-24 20:58:00,29.2,26.2,29.81,NNE,12,7.2,9.0,88,0.00,,---,0.04,VWS V14.01,2013-03-25 01:58:00,
2013-03-24 21:03:00,29.2,26.2,29.81,NNE,14,5.4,9.0,88,0.00,,---,0.04,VWS V14.01,2013-03-25 02:03:00,
2013-03-24 21:08:00,29.3,26.3,29.81,NNW,343,1.8,7.2,88,0.00,,---,0.04,VWS V14.01,2013-03-25 02:08:00,
2013-03-24 21:13:00,29.3,26.3,29.81,NNW,338,5.4,12.6,88,0.00,,---,0.04,VWS V14.01,2013-03-25 02:13:00,
2013-03-24 21:18:00,29.2,26.2,29.81,NNE,29,9.0,9.0,88,0.00,,---,0.04,VWS V14.01,2013-03-25 02:18:00,
2013-03-24 21:23:00,29.3,26.3,29.81,NNW,329,3.6,9.0,88,0.00,,---,0.04,VWS V14.01,2013-03-25 02:23:00,
2013-03-24 21:28:00,29.3,26.3,29.81,NNE,27,7.2,7.2,88,0.00,,---,0.04,VWS V14.01,2013-03-25 02:28:00,
2013-03-24 21:33:00,29.3,26.3,29.81,NW,317,1.8,10.8,88,0.00,,---,0.04,VWS V14.01,2013-03-25 02:33:00,
2013-03-24 21:38:00,29.3,26.5,29.81,North,8,3.6,9.0,89,0.00,,---,0.04,VWS V14.01,2013-03-25 02:38:00,
2013-03-24 21:43:00,29.4,26.6,29.81,NNE,15,5.4,5.4,89,0.00,,---,0.04,VWS V14.01,2013-03-25 02:43:00,
2013-03-24 21:48:00,29.4,26.6,29.81,NNW,340,3.6,3.6,89,0.00,,---,0.04,VWS V14.01,2013-03-25 02:48:00,
2013-03-24 21:53:00,29.4,26.6,29.81,NW,316,1.8,5.4,89,0.00,,---,0.04,VWS V14.01,2013-03-25 02:53:00,
2013-03-24 21:58:00,29.4,26.6,29.82,NNE,13,5.4,12.6,89,0.00,,---,0.04,VWS V14.01,2013-03-25 02:58:00,
2013-03-24 22:03:00,29.4,26.6,29.81,North,6,3.6,9.0,89,0.00,,---,0.04,VWS V14.01,2013-03-25 03:03:00,
2013-03-24 22:08:00,29.4,26.6,29.81,NE,47,5.4,7.2,89,0.00,,---,0.04,VWS V14.01,2013-03-25 03:08:00,
2013-03-24 22:13:00,29.3,26.5,29.81,North,349,5.4,5.4,89,0.00,,---,0.04,VWS V14.01,2013-03-25 03:13:00,
2013-03-24 22:18:00,29.3,26.5,29.81,North,349,1.8,7.2,89,0.00,,---,0.04,VWS V14.01,2013-03-25 03:18:00,
2013-03-24 22:23:00,29.3,26.5,29.81,NE,37,0.0,7.2,89,0.00,,---,0.04,VWS V14.01,2013-03-25 03:23:00,
2013-03-24 22:28:00,29.2,26.4,29.81,NW,313,3.6,7.2,89,0.00,,---,0.04,VWS V14.01,2013-03-25 03:28:00,
2013-03-24 22:33:00,29.2,26.4,29.81,ENE,68,7.2,9.0,89,0.00,,---,0.04,VWS V14.01,2013-03-25 03:33:00,
2013-03-24 22:38:00,29.1,26.1,29.81,NE,34,9.0,9.0,88,0.00,,---,0.04,VWS V14.01,2013-03-25 03:38:00,
2013-03-24 22:43:00,29.1,26.1,29.81,NNE,29,3.6,9.0,88,0.00,,---,0.04,VWS V14.01,2013-03-25 03:43:00,
2013-03-24 22:48:00,29.1,26.1,29.81,NNW,345,3.6,10.8,88,0.00,,---,0.04,VWS V14.01,2013-03-25 03:48:00,
2013-03-24 22:53:00,29.0,26.0,29.81,NNW,333,0.0,10.8,88,0.00,,---,0.04,VWS V14.01,2013-03-25 03:53:00,
2013-03-24 22:58:00,29.0,26.0,29.82,NNE,27,5.4,10.8,88,0.00,,---,0.04,VWS V14.01,2013-03-25 03:58:00,
2013-03-24 23:00:00,29.0,26.0,29.81,NNE,18,1.8,10.8,88,0.00,,---,0.04,VWS V14.01,2013-03-25 04:00:00,
2013-03-24 23:05:00,28.9,25.9,29.81,NW,326,5.4,14.4,88,0.00,,---,0.04,VWS V14.01,2013-03-25 04:05:00,
2013-03-24 23:10:00,28.9,25.9,29.81,NW,324,3.6,9.0,88,0.00,,---,0.04,VWS V14.01,2013-03-25 04:10:00,
2013-03-24 23:15:00,28.8,25.8,29.81,NNW,332,3.6,10.8,88,0.00,,---,0.04,VWS V14.01,2013-03-25 04:15:00,
2013-03-24 23:20:00,28.8,25.8,29.81,North,357,3.6,12.6,88,0.00,,---,0.04,VWS V14.01,2013-03-25 04:20:00,
2013-03-24 23:25:00,28.8,25.8,29.81,NNW,336,7.2,10.8,88,0.00,,---,0.04,VWS V14.01,2013-03-25 04:25:00,
2013-03-24 23:30:00,28.8,25.8,29.81,NNE,16,5.4,9.0,88,0.00,,---,0.04,VWS V14.01,2013-03-25 04:30:00,
2013-03-24 23:35:00,28.8,25.8,29.81,North,355,5.4,9.0,88,0.00,,---,0.04,VWS V14.01,2013-03-25 04:35:00,
2013-03-24 23:40:00,28.8,25.5,29.81,NNW,343,1.8,14.4,87,0.00,,---,0.04,VWS V14.01,2013-03-25 04:40:00,
2013-03-24 23:45:00,28.9,25.4,29.82,NW,321,3.6,10.8,86,0.00,,---,0.04,VWS V14.01,2013-03-25 04:45:00,
2013-03-24 23:50:00,29.0,25.2,29.82,ENE,76,5.4,14.4,86,0.00,,---,0.04,VWS V14.01,2013-03-25 04:50:00,
2013-03-24 23:55:00,29.0,24.7,29.82,North,349,7.2,16.2,84,0.00,,---,0.04,VWS V14.01,2013-03-25 04:55:00,